VAAHVASU

Guest
Details From VAAH - AHMEDABAD
To VASU - SURAT
Flight Number -
Tags decoded
Created
Modified
Stats Distance 123 nm / 228 km
Max Altitude 0 ft / 0 m
Waypoints 3
Social Downloads 0
Likes 0
Share VATSIM

Download

Looking for another format? Having issues loading an existing format? Contact us
Advertisement - Login to hide

Notes

Requested: VAAH APANO VASU

Route

VAAH APANO VASU

ID Type Via Altitude Latitude Longitude Leg Dist Tot Dist Heading (true) Name
O VAAH APT - 0 ft / 0 m 23.07720˚ 72.63463˚ - 0 nm - AHMEDABAD
APANO FIX - 0 ft / 0 m 21.58400˚ 72.98269˚ 91 nm 91 nm 168° / 168° -
O VASU APT - 0 ft / 0 m 21.11406˚ 72.74179˚ 31 nm 123 nm 206° / 205° SURAT

Altitude Profile

Advertisement - Login to hide

VAAH

Details ICAO VAAH (AMD)
Name AHMEDABAD
Region India
Timezone Asia/Kolkata (UTC+5.5)
Stats Elevation 189 ft / 58 m (AMSL)
Location 23.077196° 72.634632°
Runways 1
Magnetic Variation 0.507° E

METAR

VAAH 230130Z 22006KT 2500 HZ NSC 30/20 Q1005 NOSIG

Decode

TAF

TAF VAAH 222300Z 2300/2406 20008KT 4000 FU NSC BECMG 2301/2303 23005KT 3000 HZ BECMG 2304/2306 25004KT 6000 BECMG 2312/2314 23004KT 4000 FU NSC BECMG 2401/2403 25005KT 3000 HZ BECMG 2404/2406 23004KT 6000 NSC

Decode

Departure Runways

ID Width Length Bearing (true) Bearing (mag) Surface Threshold Offset Overrun Length
05 150 ft / 46 m 11,464 ft / 3,494 m 44.55° 44.04° Asphalt 0 ft / 0 m 210 ft / 64 m
23 150 ft / 46 m 11,464 ft / 3,494 m 224.56° 224.05° Asphalt 0 ft / 0 m 195 ft / 59 m

VASU

Details ICAO VASU (STV)
Name SURAT
Region India
Timezone Asia/Kolkata (UTC+5.5)
Stats Elevation 16 ft / 5 m (AMSL)
Location 21.114060° 72.741790°
Runways 1
Magnetic Variation 0.179° E

METAR

VASU 230130Z 23006KT 6000 FEW020 BKN100 30/26 Q1006

Decode

TAF

TAF VASU 222300Z 2300/2309 23003KT 4000 FU NSC BECMG 2301/2303 25005KT 3000 HZ BECMG 2304/2306 24005KT 5000 FU NSC

Decode

Destination Runways

ID Width Length Bearing (true) Bearing (mag) Surface Threshold Offset Overrun Length
04 100 ft / 30 m 3,596 ft / 1,096 m 42.70° 42.52° Asphalt 0 ft / 0 m 0 ft / 0 m
22 100 ft / 30 m 3,596 ft / 1,096 m 222.70° 222.52° Asphalt 0 ft / 0 m 0 ft / 0 m

Popular Alternatives